Simultaneous Nadir Overpasses (SNOs) Predictions

Prediction of SNOs between NOAA-15 and METOP-C Satellite Orbit:

Table of predicted SNOs for the next 14.0 days since TLE Epoch: 10/18/2019
Index Date (NOAA-15) Time (NOAA-15) Lat,Lon (NOAA-15) SZA (NOAA-15 ) Date (METOP-C) Time (METOP-C) Lat,Lon (METOP-C) SZA (METOP-C ) Distance(km) Time Diff (sec)
1 10/30/2019 13:29:50 -80.87,-168.66 83.51 10/30/2019 13:28:45 -80.86,-168.60 83.54 1.81 65
2 10/30/2019 14:20:24 80.86, -1.11 96.52 10/30/2019 14:19:25 80.86, -1.28 96.48 3.01 59
3 10/30/2019 15:10:52 -80.86, 166.31 83.47 10/30/2019 15:10:06 -80.87, 166.27 83.49 1.29 46
4 10/30/2019 16:01:27 80.87, -26.50 96.54 10/30/2019 16:00:46 80.87, -26.42 96.53 1.44 41
5 10/30/2019 16:51:55 -80.87, 140.92 83.46 10/30/2019 16:51:28 -80.86, 140.77 83.49 2.61 27
6 10/30/2019 17:42:30 80.88, -51.89 96.55 10/30/2019 17:42:08 80.86, -51.91 96.53 1.62 22
7 10/30/2019 18:32:58 -80.87, 115.53 83.44 10/30/2019 18:32:49 -80.87, 115.63 83.43 1.89 9
8 10/30/2019 19:23:32 80.86, -76.92 96.59 10/30/2019 19:23:29 80.87, -77.05 96.58 2.51 3
9 10/30/2019 20:14:01 -80.88, 90.14 83.42 10/30/2019 20:14:11 -80.87, 90.14 83.43 1.73 10
10 10/30/2019 21:04:35 80.87,-102.30 96.60 10/30/2019 21:04:50 80.88,-102.19 96.63 2.51 15
11 10/30/2019 21:55:03 -80.87, 65.10 83.39 10/30/2019 21:55:32 -80.88, 65.00 83.38 1.95 29
12 10/30/2019 22:45:38 80.88,-127.69 96.62 10/30/2019 22:46:12 80.88,-127.68 96.63 0.31 34
13 10/30/2019 23:36:06 -80.88, 39.71 83.37 10/30/2019 23:36:53 -80.89, 39.86 83.33 2.88 47
14 10/31/2019 00:26:41 80.88,-153.08 96.64 10/31/2019 00:27:34 80.87,-153.17 96.63 2.45 53
15 10/31/2019 01:17:09 -80.88, 14.32 83.36 10/31/2019 01:18:15 -80.88, 14.37 83.33 0.92 66




NCC Satellite Simultaneous Nadir Overpasses (SNOs) Prediction Service
